Location: Krakow
(50.0212°N, 19.9423°E)
Time: 13:01:42
(UTC+02:00)

NOAA 18 - Pass Details

Date: 07 May 2025
Orbit: 837 x 857 km, 98.8° (Epoch: 14 May)

Event Time Altitude Azimuth Distance (km) Brightness Sun altitude
Exits shadow 00:31:27 11° 250° (WSW) 2,401 7.4 -23.2°
Maximum altitude 00:33:39 14° 274° (W) 2,232 7.4 -23.2°
Drops below altitude 10° 00:36:24 10° 305° (NW) 2,499 8.1 -23.2°
Sets 00:40:08 0° 330° (NNW) 3,440 9.3 -23.2°
